Location: Newark
(54.2500°N, 9.1833°E)
Time: 22:26:43
(UTC+00:00)

Vanguard 2 Rocket - Visible Passes

Search period start: 10 December 2019 00:00
Search period end: 20 December 2019 00:00
Orbit: 554 x 3326 km, 32.9° (Epoch: 10 December)

Date Brightness Start Highest point End Pass type
(mag) Time Alt. Az. Time Alt. Az. Time Alt. Az.
10 Dec 10.1 15:59:27 10° S 16:04:24 13° SSE 16:08:36 10° SE visible
10 Dec 9.4 18:10:24 10° SW 18:17:23 18° S 18:20:43 14° SSE visible
10 Dec 9.9 20:25:56 10° SW 20:26:31 11° SW 20:26:31 11° SW visible
11 Dec 9.6 17:09:32 10° SSW 17:17:42 18° S 17:23:47 10° SE visible
11 Dec 9.5 19:24:07 10° SW 19:30:16 17° SSW 19:30:24 17° SSW visible
12 Dec 9.9 16:09:01 10° SSW 16:17:49 18° SSE 16:24:31 10° SE visible
12 Dec 9.4 18:22:36 10° SW 18:30:50 20° S 18:34:17 17° SSE visible
12 Dec 10.0 20:39:43 10° SW 20:40:05 10° SW 20:40:05 10° SW visible
13 Dec 9.6 17:21:16 10° SW 17:31:09 22° S 17:38:09 10° SE visible
13 Dec 9.5 19:37:11 10° SW 19:43:36 17° SSW 19:43:58 17° SSW visible
14 Dec 9.9 16:20:09 10° SW 16:31:12 23° S 16:39:10 10° SE visible
14 Dec 9.4 18:35:17 10° SW 18:44:12 22° SSW 18:47:52 17° SSE visible
15 Dec 9.6 17:33:34 10° SW 17:44:31 25° S 17:51:46 11° SE visible
15 Dec 9.7 19:50:43 10° WSW 19:56:46 16° SSW 19:57:34 16° SSW visible
16 Dec 9.9 16:32:02 10° SW 16:44:32 27° S 16:53:18 10° SE visible
16 Dec 9.5 18:48:20 10° WSW 18:57:27 21° SSW 19:01:30 17° S visible
17 Dec 10.1 15:30:50 10° SW 15:44:16 27° S 15:54:06 10° ESE visible
17 Dec 9.7 17:46:16 10° WSW 17:57:48 26° SSW 18:05:27 11° SE visible
17 Dec 9.9 20:04:50 10° WSW 20:09:45 14° SW 20:11:17 13° SSW visible
18 Dec 9.9 16:44:25 10° SW 16:57:48 29° S 17:07:06 10° SE visible
18 Dec 9.7 19:01:44 10° WSW 19:10:31 20° SSW 19:15:16 14° S visible
19 Dec 10.1 15:42:51 10° SW 15:57:29 30° S 16:08:03 10° ESE visible
19 Dec 9.8 17:59:17 10° WSW 18:10:56 25° SSW 18:19:04 10° SSE visible
19 Dec 10.1 20:20:40 10° SW 20:22:34 11° SW 20:24:19 10° SW visible
